This is the latest recevied weather packets stored in our database for station/object DC1MAK-13. If no packets are shown the sender has not sent any weather packets the latest 10 day(s).
| Time | Temp. | Humidity | Pressure | Rain* | Wind** | Luminosity | Snow |
|---|---|---|---|---|---|---|---|
| 1777888583 | 21.67° C | 37% | 984 hPa | - | - | - | - |
| 1777887979 | 22.22° C | 37% | 984.1 hPa | - | - | - | - |
| 1777887672 | 21.67° C | 38% | 984.1 hPa | - | - | - | - |
| 1777887369 | 22.22° C | 37% | 984.1 hPa | - | - | - | - |
| 1777887065 | 22.22° C | 38% | 984.1 hPa | - | - | - | - |
| 1777886459 | 21.11° C | 37% | 984.3 hPa | - | - | - | - |
| 1777886159 | 21.11° C | 36% | 984.3 hPa | - | - | - | - |
| 1777885547 | 21.67° C | 36% | 984.3 hPa | - | - | - | - |
| 1777885244 | 21.11° C | 37% | 984.4 hPa | - | - | - | - |
| 1777884639 | 21.11° C | 38% | 984.6 hPa | - | - | - | - |
| 1777884333 | 21.67° C | 36% | 984.5 hPa | - | - | - | - |
| 1777884029 | 21.11° C | 37% | 984.6 hPa | - | - | - | - |
| 1777883726 | 21.11° C | 39% | 984.6 hPa | - | - | - | - |
| 1777883422 | 21.11° C | 39% | 984.7 hPa | - | - | - | - |
| 1777882819 | 20.56° C | 40% | 984.7 hPa | - | - | - | - |
| 1777882511 | 20° C | 40% | 984.7 hPa | - | - | - | - |
| 1777882208 | 20° C | 39% | 984.8 hPa | - | - | - | - |
| 1777881904 | 20° C | 39% | 984.9 hPa | - | - | - | - |
| 1777881299 | 20° C | 44% | 985 hPa | - | - | - | - |
| 1777880999 | 20° C | 45% | 985 hPa | - | - | - | - |
| 1777880690 | 19.44° C | 47% | 985 hPa | - | - | - | - |
| 1777880386 | 18.89° C | 46% | 985 hPa | - | - | - | - |
| 1777880082 | 18.89° C | 48% | 985 hPa | - | - | - | - |
| 1777879479 | 17.78° C | 54% | 985 hPa | - | - | - | - |
| 1777879172 | 17.78° C | 55% | 985 hPa | - | - | - | - |
* Rain since midnight (hover to see other rain measurements)
** Current wind speed in m/s (hover to see current wind gust speed)